QPF
0.02 0.03 0.06 0.06 0.06 0.04 0.03 0.04 0.05 0.05 0.05 0.06 0.09 0.10 0.08 0.04 0.05 0.05 0.04 0.04 0.04 0.04 0.04 0.07 0.10 0.11 0.12 0.13 0.08 0.06 0.07 0.08 0.08 0.10 0.10 0.12 0.14 0.09 0.06 0.08 0.05 0.03 0.03
0.02 0.04 0.07 0.06 0.06 0.05 0.04 0.04 0.04 0.03 0.04 0.07 0.08 0.09 0.09 0.05 0.05 0.05 0.04 0.03 0.04 0.05 0.04 0.07 0.08 0.07 0.09 0.09 0.07 0.06 0.05 0.07 0.05 0.06 0.08 0.10 0.11 0.11 0.08 0.07 0.05 0.03 0.05
0.03 0.04 0.05 0.06 0.06 0.04 0.03 0.04 0.04 0.03 0.03 0.04 0.06 0.08 0.09 0.07 0.07 0.06 0.04 0.03 0.03 0.04 0.05 0.07 0.09 0.10 0.10 0.09 0.08 0.07 0.05 0.07 0.06 0.07 0.08 0.06 0.07 0.11 0.12 0.12 0.09 0.06 0.06
0.04 0.03 0.03 0.04 0.04 0.03 0.02 0.03 0.03 0.03 0.04 0.04 0.06 0.09 0.07 0.06 0.05 0.06 0.04 0.04 0.04 0.04 0.05 0.10 0.11 0.10 0.09 0.08 0.08 0.07 0.06 0.07 0.08 0.08 0.05 0.03 0.03 0.09 0.14 0.18 0.12 0.07 0.05
0.04 0.04 0.04 0.04 0.03 0.03 0.02 0.02 0.02 0.03 0.02 0.02 0.04 0.05 0.04 0.05 0.05 0.04 0.04 0.04 0.05 0.05 0.08 0.10 0.08 0.07 0.07 0.07 0.06 0.06 0.07 0.09 0.12 0.12 0.06 0.04 0.03 0.07 0.11 0.16 0.11 0.07 0.05
0.03 0.03 0.04 0.05 0.05 0.04 0.03 0.04 0.03 0.03 0.02 0.03 0.04 0.03 0.02 0.03 0.03 0.03 0.04 0.05 0.06 0.07 0.06 0.07 0.06 0.06 0.07 0.08 0.08 0.08 0.07 0.10 0.14 0.15 0.09 0.07 0.06 0.09 0.13 0.14 0.09 0.07 0.06
0.02 0.03 0.04 0.06 0.06 0.05 0.05 0.05 0.06 0.05 0.04 0.04 0.04 0.04 0.03 0.03 0.04 0.03 0.02 0.04 0.06 0.05 0.05 0.04 0.04 0.05 0.07 0.09 0.10 0.10 0.10 0.11 0.11 0.13 0.09 0.06 0.06 0.08 0.13 0.15 0.11 0.10 0.08
0.02 0.03 0.04 0.06 0.06 0.06 0.06 0.09 0.10 0.08 0.07 0.06 0.04 0.04 0.03 0.03 0.04 0.03 0.04 0.05 0.06 0.05 0.03 0.03 0.03 0.04 0.04 0.05 0.08 0.10 0.10 0.11 0.10 0.08 0.09 0.06 0.05 0.09 0.14 0.15 0.14 0.13 0.12
0.02 0.03 0.04 0.06 0.07 0.06 0.05 0.07 0.10 0.07 0.08 0.06 0.05 0.04 0.04 0.04 0.03 0.04 0.06 0.06 0.06 0.05 0.04 0.04 0.06 0.07 0.05 0.05 0.07 0.09 0.10 0.12 0.09 0.07 0.07 0.08 0.07 0.10 0.15 0.16 0.14 0.14 0.14
0.03 0.05 0.06 0.06 0.06 0.04 0.05 0.09 0.09 0.09 0.08 0.06 0.05 0.05 0.06 0.06 0.05 0.05 0.05 0.06 0.06 0.05 0.04 0.05 0.08 0.08 0.06 0.07 0.07 0.08 0.07 0.09 0.07 0.06 0.06 0.06 0.08 0.11 0.13 0.14 0.14 0.13 0.13
0.05 0.05 0.05 0.04 0.03 0.02 0.03 0.05 0.10 0.13 0.09 0.07 0.06 0.07 0.07 0.04 0.03 0.03 0.04 0.06 0.08 0.09 0.07 0.06 0.05 0.04 0.07 0.08 0.09 0.08 0.07 0.05 0.04 0.03 0.04 0.06 0.08 0.10 0.12 0.12 0.13 0.15 0.13
0.03 0.04 0.04 0.03 0.03 0.03 0.02 0.04 0.09 0.08 0.07 0.07 0.06 0.06 0.07 0.05 0.04 0.03 0.04 0.06 0.09 0.09 0.09 0.08 0.07 0.06 0.08 0.06 0.10 0.11 0.06 0.04 0.04 0.03 0.03 0.06 0.08 0.09 0.10 0.09 0.11 0.15 0.14
0.01 0.02 0.03 0.03 0.02 0.03 0.03 0.04 0.04 0.04 0.06 0.06 0.05 0.05 0.04 0.03 0.03 0.04 0.03 0.03 0.06 0.07 0.08 0.10 0.08 0.05 0.07 0.07 0.08 0.07 0.04 0.03 0.04 0.03 0.04 0.06 0.06 0.06 0.09 0.11 0.12 0.14 0.16
0.02 0.02 0.02 0.02 0.01 0.02 0.02 0.02 0.02 0.03 0.06 0.07 0.05 0.03 0.02 0.02 0.01 0.02 0.02 0.03 0.04 0.05 0.05 0.05 0.05 0.07 0.10 0.07 0.05 0.05 0.05 0.04 0.04 0.03 0.04 0.06 0.05 0.05 0.07 0.10 0.17 0.20 0.17
0.01 0.01 0.01 0.01 0.02 0.02 0.02 0.02 0.02 0.02 0.02 0.03 0.03 0.03 0.03 0.02 0.02 0.02 0.03 0.04 0.06 0.08 0.06 0.06 0.07 0.07 0.08 0.07 0.06 0.05 0.06 0.05 0.05 0.04 0.04 0.07 0.07 0.07 0.07 0.11 0.16 0.22 0.19
0.01 0.01 0.00 0.01 0.01 0.02 0.01 0.02 0.02 0.02 0.03 0.03 0.03 0.02 0.02 0.02 0.01 0.03 0.04 0.06 0.07 0.08 0.08 0.09 0.09 0.06 0.04 0.05 0.05 0.06 0.07 0.08 0.07 0.07 0.08 0.08 0.11 0.10 0.08 0.09 0.12 0.20 0.20
0.01 0.01 0.01 0.01 0.01 0.02 0.02 0.02 0.02 0.02 0.03 0.03 0.02 0.02 0.02 0.01 0.01 0.02 0.03 0.04 0.06 0.07 0.09 0.10 0.08 0.04 0.03 0.03 0.05 0.05 0.07 0.10 0.10 0.10 0.12 0.12 0.10 0.11 0.13 0.13 0.14 0.14 0.14
0.02 0.02 0.01 0.01 0.01 0.02 0.02 0.01 0.01 0.03 0.03 0.03 0.03 0.02 0.01 0.01 0.02 0.02 0.02 0.04 0.04 0.07 0.11 0.06 0.03 0.03 0.02 0.02 0.03 0.05 0.08 0.09 0.09 0.09 0.08 0.08 0.08 0.09 0.11 0.11 0.12 0.12 0.12
0.01 0.01 0.01 0.01 0.01 0.01 0.02 0.01 0.01 0.02 0.03 0.03 0.03 0.02 0.01 0.01 0.02 0.02 0.02 0.03 0.04 0.04 0.04 0.02 0.03 0.04 0.03 0.03 0.04 0.04 0.03 0.04 0.05 0.04 0.04 0.05 0.07 0.10 0.10 0.09 0.10 0.11 0.11
0.01 0.01 0.01 0.00 0.01 0.02 0.02 0.02 0.02 0.03 0.05 0.04 0.02 0.01 0.01 0.01 0.01 0.02 0.02 0.02 0.03 0.03 0.03 0.03 0.03 0.03 0.03 0.03 0.02 0.02 0.02 0.03 0.03 0.03 0.03 0.06 0.06 0.08 0.08 0.09 0.07 0.06 0.07
0.01 0.01 0.01 0.01 0.01 0.01 0.01 0.02 0.03 0.05 0.08 0.04 0.01 0.01 0.01 0.01 0.01 0.02 0.01 0.02 0.02 0.02 0.03 0.03 0.02 0.02 0.02 0.02 0.02 0.02 0.03 0.04 0.03 0.02 0.03 0.04 0.05 0.04 0.05 0.07 0.06 0.06 0.05
0.01 0.00 0.01 0.01 0.01 0.01 0.02 0.02 0.03 0.06 0.04 0.02 0.01 0.01 0.01 0.01 0.01 0.01 0.01 0.02 0.03 0.02 0.02 0.02 0.02 0.01 0.01 0.02 0.02 0.02 0.03 0.04 0.03 0.02 0.02 0.02 0.03 0.03 0.02 0.03 0.04 0.05 0.05
0.01 0.01 0.01 0.01 0.01 0.02 0.03 0.03 0.03 0.02 0.01 0.01 0.01 0.02 0.01 0.01 0.01 0.00 0.01 0.01 0.02 0.01 0.01 0.01 0.01 0.01 0.02 0.02 0.02 0.01 0.02 0.04 0.04 0.03 0.02 0.02 0.02 0.01 0.01 0.02 0.02 0.02 0.03
0.01 0.01 0.01 0.01 0.02 0.03 0.04 0.05 0.02 0.01 0.02 0.01 0.01 0.02 0.02 0.01 0.01 0.01 0.01 0.01 0.01 0.00 0.01 0.01 0.01 0.01 0.02 0.02 0.02 0.01 0.01 0.03 0.04 0.03 0.02 0.01 0.01 0.01 0.01 0.02 0.02 0.03 0.04
0.01 0.01 0.00 0.01 0.03 0.05 0.07 0.07 0.05 0.03 0.02 0.01 0.01 0.02 0.02 0.02 0.02 0.02 0.01 0.01 0.01 0.01 0.01 0.02 0.01 0.01 0.01 0.02 0.02 0.01 0.01 0.03 0.04 0.03 0.02 0.01 0.01 0.01 0.01 0.02 0.03 0.04 0.05
0.01 0.01 0.01 0.02 0.06 0.07 0.07 0.06 0.05 0.04 0.04 0.03 0.02 0.02 0.02 0.02 0.02 0.02 0.02 0.02 0.01 0.01 0.02 0.02 0.02 0.02 0.02 0.02 0.02 0.02 0.02 0.02 0.03 0.02 0.03 0.02 0.01 0.00 0.01 0.01 0.02 0.07 0.08
MSLP
1007.80 1007.36 1007.18 1007.26 1007.55 1007.95 1008.36 1008.69 1008.90 1008.98 1008.95 1008.89 1008.85 1008.90 1009.04 1009.26 1009.54 1009.82 1010.08 1010.31 1010.52 1010.77 1011.08 1011.51 1012.05 1012.70 1013.39 1014.06 1014.65 1015.12 1015.45 1015.67 1015.81 1015.93 1016.07 1016.26 1016.50 1016.78 1017.06 1017.30 1017.48 1017.60 1017.68
1007.49 1007.17 1007.08 1007.23 1007.55 1007.97 1008.40 1008.74 1008.97 1009.08 1009.09 1009.08 1009.09 1009.17 1009.33 1009.55 1009.80 1010.05 1010.26 1010.44 1010.62 1010.83 1011.13 1011.54 1012.08 1012.72 1013.42 1014.10 1014.71 1015.20 1015.57 1015.83 1016.01 1016.17 1016.34 1016.55 1016.80 1017.06 1017.32 1017.54 1017.72 1017.84 1017.93
1007.14 1006.93 1006.94 1007.16 1007.54 1007.99 1008.44 1008.81 1009.07 1009.21 1009.27 1009.30 1009.34 1009.43 1009.58 1009.77 1009.98 1010.18 1010.34 1010.49 1010.64 1010.85 1011.15 1011.58 1012.13 1012.79 1013.49 1014.18 1014.80 1015.32 1015.72 1016.02 1016.26 1016.46 1016.66 1016.88 1017.13 1017.38 1017.62 1017.83 1017.99 1018.12 1018.23
1006.82 1006.72 1006.82 1007.11 1007.54 1008.03 1008.50 1008.91 1009.20 1009.39 1009.49 1009.55 1009.60 1009.68 1009.80 1009.94 1010.09 1010.23 1010.36 1010.49 1010.65 1010.89 1011.23 1011.69 1012.27 1012.95 1013.66 1014.36 1014.99 1015.53 1015.95 1016.29 1016.56 1016.79 1017.02 1017.25 1017.49 1017.73 1017.95 1018.14 1018.30 1018.43 1018.56
1006.61 1006.60 1006.78 1007.12 1007.58 1008.10 1008.60 1009.03 1009.36 1009.58 1009.72 1009.79 1009.85 1009.92 1009.99 1010.08 1010.18 1010.28 1010.38 1010.52 1010.71 1011.00 1011.40 1011.93 1012.56 1013.26 1013.98 1014.68 1015.30 1015.84 1016.27 1016.63 1016.92 1017.18 1017.42 1017.66 1017.88 1018.10 1018.29 1018.46 1018.61 1018.76 1018.90
1006.56 1006.62 1006.84 1007.21 1007.69 1008.22 1008.72 1009.17 1009.52 1009.77 1009.93 1010.02 1010.09 1010.13 1010.18 1010.22 1010.28 1010.35 1010.46 1010.62 1010.87 1011.23 1011.71 1012.30 1012.98 1013.71 1014.43 1015.11 1015.72 1016.23 1016.66 1017.01 1017.31 1017.58 1017.83 1018.06 1018.27 1018.46 1018.62 1018.77 1018.91 1019.06 1019.22
1006.67 1006.76 1007.00 1007.38 1007.84 1008.35 1008.85 1009.29 1009.65 1009.91 1010.10 1010.22 1010.29 1010.34 1010.37 1010.39 1010.43 1010.50 1010.62 1010.83 1011.14 1011.58 1012.13 1012.78 1013.50 1014.24 1014.95 1015.61 1016.17 1016.66 1017.06 1017.40 1017.70 1017.97 1018.21 1018.43 1018.63 1018.79 1018.92 1019.05 1019.17 1019.32 1019.49
1006.84 1006.95 1007.20 1007.57 1008.02 1008.50 1008.96 1009.38 1009.73 1010.01 1010.22 1010.36 1010.47 1010.53 1010.58 1010.61 1010.66 1010.74 1010.90 1011.15 1011.52 1012.02 1012.63 1013.32 1014.06 1014.80 1015.48 1016.09 1016.62 1017.05 1017.42 1017.74 1018.03 1018.30 1018.54 1018.75 1018.93 1019.07 1019.18 1019.27 1019.38 1019.51 1019.68
1006.95 1007.10 1007.37 1007.74 1008.17 1008.62 1009.05 1009.44 1009.78 1010.06 1010.30 1010.48 1010.63 1010.74 1010.82 1010.89 1010.97 1011.08 1011.27 1011.56 1011.97 1012.51 1013.15 1013.86 1014.59 1015.30 1015.95 1016.52 1016.99 1017.38 1017.72 1018.02 1018.30 1018.56 1018.80 1019.01 1019.17 1019.29 1019.38 1019.45 1019.53 1019.64 1019.79
1006.88 1007.10 1007.43 1007.84 1008.27 1008.70 1009.11 1009.48 1009.81 1010.11 1010.37 1010.60 1010.80 1010.97 1011.11 1011.23 1011.35 1011.50 1011.72 1012.04 1012.47 1013.02 1013.66 1014.36 1015.07 1015.74 1016.35 1016.86 1017.28 1017.64 1017.95 1018.23 1018.50 1018.76 1019.00 1019.21 1019.37 1019.48 1019.55 1019.60 1019.65 1019.73 1019.85
1006.53 1006.88 1007.32 1007.81 1008.30 1008.76 1009.17 1009.53 1009.87 1010.17 1010.47 1010.75 1011.01 1011.25 1011.45 1011.63 1011.80 1012.00 1012.24 1012.57 1013.00 1013.54 1014.16 1014.83 1015.50 1016.13 1016.68 1017.15 1017.53 1017.85 1018.14 1018.40 1018.67 1018.93 1019.17 1019.38 1019.54 1019.65 1019.70 1019.73 1019.75 1019.80 1019.89
1005.87 1006.42 1007.04 1007.67 1008.27 1008.79 1009.24 1009.63 1009.97 1010.30 1010.62 1010.95 1011.27 1011.57 1011.84 1012.09 1012.31 1012.54 1012.81 1013.15 1013.57 1014.08 1014.67 1015.30 1015.92 1016.51 1017.01 1017.44 1017.79 1018.08 1018.34 1018.59 1018.84 1019.09 1019.33 1019.54 1019.70 1019.80 1019.85 1019.86 1019.87 1019.88 1019.93
1004.99 1005.77 1006.61 1007.44 1008.19 1008.83 1009.35 1009.78 1010.16 1010.51 1010.86 1011.22 1011.59 1011.95 1012.28 1012.58 1012.86 1013.13 1013.42 1013.76 1014.18 1014.67 1015.22 1015.81 1016.39 1016.93 1017.39 1017.78 1018.10 1018.35 1018.59 1018.81 1019.04 1019.27 1019.49 1019.69 1019.85 1019.95 1019.99 1020.00 1019.99 1019.99 1020.01
1004.01 1005.04 1006.13 1007.18 1008.11 1008.88 1009.50 1010.00 1010.41 1010.79 1011.17 1011.56 1011.96 1012.36 1012.74 1013.10 1013.42 1013.73 1014.06 1014.42 1014.83 1015.31 1015.84 1016.39 1016.93 1017.43 1017.85 1018.20 1018.48 1018.70 1018.89 1019.07 1019.26 1019.45 1019.64 1019.82 1019.96 1020.05 1020.11 1020.12 1020.11 1020.09 1020.09
1003.12 1004.38 1005.70 1006.96 1008.06 1008.98 1009.70 1010.27 1010.73 1011.14 1011.54 1011.94 1012.37 1012.79 1013.21 1013.61 1013.98 1014.34 1014.70 1015.09 1015.52 1016.00 1016.51 1017.04 1017.54 1018.00 1018.39 1018.70 1018.93 1019.10 1019.23 1019.35 1019.47 1019.61 1019.75 1019.88 1020.00 1020.09 1020.14 1020.17 1020.17 1020.16 1020.14
1002.53 1003.96 1005.44 1006.84 1008.08 1009.12 1009.94 1010.58 1011.09 1011.52 1011.93 1012.35 1012.78 1013.22 1013.66 1014.09 1014.50 1014.91 1015.32 1015.75 1016.21 1016.70 1017.21 1017.71 1018.19 1018.61 1018.96 1019.21 1019.38 1019.49 1019.56 1019.60 1019.64 1019.70 1019.77 1019.85 1019.93 1020.00 1020.06 1020.09 1020.11 1020.12 1020.11
1002.37 1003.87 1005.42 1006.89 1008.21 1009.31 1010.20 1010.89 1011.44 1011.91 1012.33 1012.75 1013.17 1013.62 1014.07 1014.52 1014.97 1015.42 1015.88 1016.35 1016.84 1017.35 1017.87 1018.36 1018.81 1019.19 1019.48 1019.68 1019.79 1019.83 1019.82 1019.78 1019.74 1019.71 1019.70 1019.71 1019.74 1019.78 1019.83 1019.87 1019.91 1019.93 1019.94
1002.72 1004.17 1005.68 1007.14 1008.45 1009.57 1010.48 1011.21 1011.80 1012.29 1012.72 1013.14 1013.56 1013.99 1014.44 1014.90 1015.38 1015.86 1016.36 1016.87 1017.40 1017.93 1018.44 1018.92 1019.33 1019.67 1019.92 1020.06 1020.11 1020.09 1020.00 1019.89 1019.76 1019.65 1019.55 1019.48 1019.45 1019.44 1019.46 1019.50 1019.54 1019.58 1019.61
1003.55 1004.86 1006.23 1007.57 1008.80 1009.88 1010.79 1011.54 1012.15 1012.66 1013.11 1013.52 1013.93 1014.35 1014.79 1015.25 1015.73 1016.24 1016.76 1017.30 1017.85 1018.38 1018.89 1019.35 1019.73 1020.02 1020.22 1020.32 1020.32 1020.24 1020.11 1019.94 1019.74 1019.55 1019.37 1019.23 1019.12 1019.04 1019.01 1019.01 1019.04 1019.08 1019.11
1004.77 1005.85 1007.01 1008.17 1009.27 1010.26 1011.13 1011.88 1012.51 1013.04 1013.51 1013.93 1014.33 1014.73 1015.14 1015.58 1016.05 1016.56 1017.09 1017.64 1018.20 1018.73 1019.22 1019.64 1019.99 1020.25 1020.40 1020.47 1020.44 1020.34 1020.18 1019.98 1019.74 1019.49 1019.24 1019.02 1018.82 1018.66 1018.55 1018.49 1018.47 1018.48 1018.50
1006.22 1007.05 1007.95 1008.89 1009.82 1010.70 1011.52 1012.25 1012.89 1013.46 1013.94 1014.37 1014.76 1015.13 1015.51 1015.92 1016.37 1016.86 1017.38 1017.92 1018.46 1018.97 1019.44 1019.83 1020.14 1020.37 1020.50 1020.55 1020.52 1020.43 1020.27 1020.07 1019.82 1019.53 1019.23 1018.92 1018.63 1018.38 1018.17 1018.01 1017.92 1017.87 1017.85
1007.74 1008.31 1008.96 1009.68 1010.43 1011.19 1011.94 1012.66 1013.32 1013.91 1014.41 1014.85 1015.23 1015.57 1015.92 1016.29 1016.70 1017.15 1017.65 1018.16 1018.68 1019.16 1019.59 1019.95 1020.23 1020.43 1020.56 1020.61 1020.61 1020.54 1020.42 1020.24 1020.00 1019.71 1019.36 1018.99 1018.61 1018.24 1017.91 1017.64 1017.44 1017.30 1017.21
1009.17 1009.52 1009.95 1010.46 1011.05 1011.71 1012.41 1013.11 1013.78 1014.39 1014.91 1015.36 1015.73 1016.05 1016.36 1016.69 1017.05 1017.46 1017.92 1018.39 1018.87 1019.32 1019.71 1020.04 1020.30 1020.48 1020.60 1020.68 1020.71 1020.69 1020.62 1020.49 1020.28 1020.00 1019.63 1019.20 1018.73 1018.26 1017.81 1017.41 1017.08 1016.84 1016.66
1010.41 1010.59 1010.84 1011.19 1011.66 1012.23 1012.88 1013.56 1014.25 1014.87 1015.42 1015.87 1016.23 1016.53 1016.81 1017.09 1017.41 1017.78 1018.19 1018.63 1019.06 1019.47 1019.83 1020.12 1020.35 1020.52 1020.65 1020.74 1020.81 1020.84 1020.83 1020.75 1020.59 1020.32 1019.95 1019.49 1018.95 1018.38 1017.82 1017.29 1016.84 1016.48 1016.21
1011.40 1011.47 1011.60 1011.84 1012.21 1012.72 1013.33 1014.00 1014.69 1015.33 1015.88 1016.33 1016.69 1016.97 1017.22 1017.47 1017.75 1018.08 1018.45 1018.85 1019.24 1019.61 1019.93 1020.18 1020.38 1020.53 1020.66 1020.76 1020.85 1020.93 1020.97 1020.94 1020.82 1020.59 1020.22 1019.74 1019.16 1018.52 1017.87 1017.24 1016.68 1016.22 1015.84
1012.15 1012.16 1012.22 1012.39 1012.70 1013.16 1013.73 1014.39 1015.07 1015.71 1016.27 1016.72 1017.06 1017.34 1017.57 1017.79 1018.05 1018.35 1018.68 1019.04 1019.40 1019.72 1020.00 1020.21 1020.37 1020.49 1020.59 1020.69 1020.79 1020.88 1020.95 1020.96 1020.88 1020.67 1020.33 1019.86 1019.27 1018.59 1017.89 1017.20 1016.56 1016.00 1015.54
Thickness
5786 5789 5789 5788 5788 5787 5787 5787 5787 5788 5787 5786 5786 5785 5784 5784 5784 5784 5783 5782 5781 5780 5779 5778 5777 5775 5773 5772 5771 5769 5768 5767 5765 5764 5762 5761 5760 5759 5758 5756 5755 5754 5753
5791 5791 5790 5789 5788 5787 5787 5787 5787 5786 5786 5785 5785 5784 5784 5784 5783 5783 5782 5781 5779 5779 5778 5777 5776 5774 5773 5772 5770 5769 5767 5766 5765 5763 5762 5760 5759 5758 5757 5755 5754 5753 5753
5792 5791 5790 5789 5788 5787 5786 5786 5786 5785 5785 5784 5784 5783 5783 5783 5783 5782 5781 5780 5779 5778 5777 5776 5775 5774 5773 5771 5770 5768 5767 5766 5764 5763 5761 5760 5758 5757 5756 5754 5753 5752 5752
5793 5792 5790 5789 5788 5787 5786 5785 5785 5784 5784 5784 5783 5783 5782 5782 5782 5781 5780 5779 5778 5777 5776 5775 5775 5774 5772 5771 5769 5768 5766 5765 5764 5762 5761 5759 5758 5757 5755 5754 5752 5752 5751
5792 5791 5790 5789 5787 5786 5785 5785 5784 5784 5783 5783 5782 5782 5782 5781 5781 5781 5780 5778 5777 5776 5775 5774 5774 5773 5772 5770 5769 5767 5766 5765 5763 5762 5760 5759 5758 5756 5755 5754 5752 5751 5750
5790 5790 5789 5789 5788 5786 5785 5784 5783 5783 5783 5782 5782 5782 5781 5781 5780 5780 5779 5778 5776 5775 5775 5774 5773 5773 5771 5770 5768 5767 5766 5764 5763 5761 5760 5758 5757 5756 5755 5753 5752 5751 5750
5789 5789 5789 5788 5787 5786 5785 5784 5783 5783 5782 5782 5781 5781 5781 5780 5780 5779 5778 5777 5776 5775 5774 5774 5773 5772 5771 5769 5768 5767 5766 5765 5763 5762 5760 5758 5757 5756 5755 5753 5752 5751 5749
5789 5788 5788 5788 5787 5786 5785 5784 5783 5783 5782 5782 5781 5781 5780 5780 5779 5778 5778 5777 5776 5775 5774 5774 5773 5772 5771 5770 5768 5767 5766 5764 5763 5762 5760 5759 5758 5757 5755 5754 5752 5751 5749
5789 5788 5787 5787 5786 5786 5785 5784 5783 5782 5782 5781 5781 5781 5780 5780 5779 5778 5777 5777 5776 5775 5774 5774 5773 5771 5770 5769 5768 5767 5766 5765 5763 5762 5761 5760 5759 5757 5756 5754 5753 5751 5750
5788 5787 5786 5786 5786 5785 5784 5783 5783 5782 5782 5781 5781 5780 5780 5780 5779 5778 5778 5777 5777 5776 5775 5774 5773 5772 5770 5770 5768 5767 5766 5765 5763 5762 5761 5760 5759 5758 5756 5755 5754 5752 5751
5786 5786 5786 5786 5786 5785 5785 5784 5783 5782 5782 5781 5780 5780 5779 5779 5778 5778 5778 5777 5777 5776 5776 5775 5773 5772 5770 5769 5768 5767 5766 5764 5764 5763 5762 5761 5760 5759 5757 5756 5755 5753 5752
5784 5786 5786 5786 5786 5785 5785 5784 5783 5782 5782 5781 5780 5780 5779 5778 5778 5778 5777 5777 5777 5776 5775 5774 5773 5771 5770 5769 5768 5767 5765 5764 5764 5763 5762 5761 5761 5760 5759 5757 5756 5754 5753
5787 5787 5788 5787 5787 5786 5785 5785 5784 5783 5782 5781 5780 5780 5779 5778 5777 5777 5776 5776 5775 5775 5774 5773 5772 5771 5769 5768 5767 5766 5765 5764 5763 5763 5762 5762 5762 5761 5760 5758 5757 5755 5754
5788 5788 5789 5789 5788 5786 5785 5784 5784 5783 5782 5780 5780 5779 5778 5777 5776 5776 5775 5775 5774 5773 5773 5772 5771 5769 5769 5768 5766 5765 5765 5764 5764 5763 5762 5762 5762 5761 5760 5758 5757 5755 5754
5789 5790 5791 5790 5789 5788 5786 5784 5784 5783 5782 5780 5780 5779 5778 5776 5775 5774 5774 5773 5773 5772 5771 5770 5769 5768 5767 5766 5765 5765 5764 5764 5763 5763 5762 5762 5762 5761 5760 5759 5757 5755 5753
5792 5792 5792 5791 5791 5789 5787 5785 5784 5783 5782 5780 5779 5778 5777 5776 5775 5773 5773 5772 5772 5771 5770 5769 5768 5767 5766 5766 5765 5764 5764 5763 5763 5762 5762 5761 5761 5761 5760 5758 5757 5755 5753
5795 5795 5794 5793 5792 5790 5788 5786 5785 5784 5782 5780 5779 5778 5776 5775 5774 5773 5772 5771 5771 5770 5769 5768 5767 5766 5765 5765 5764 5764 5763 5763 5762 5761 5761 5760 5760 5760 5759 5757 5756 5755 5754
5797 5796 5795 5795 5792 5791 5789 5787 5785 5784 5782 5780 5779 5778 5776 5774 5773 5772 5771 5770 5770 5769 5768 5767 5766 5764 5763 5763 5763 5763 5762 5762 5761 5760 5760 5759 5759 5758 5757 5756 5755 5754 5753
5799 5797 5795 5795 5793 5791 5789 5787 5785 5784 5782 5780 5778 5777 5775 5774 5773 5771 5770 5770 5769 5768 5767 5766 5764 5763 5761 5761 5761 5761 5761 5760 5760 5759 5759 5758 5757 5756 5756 5755 5754 5753 5752
5801 5799 5797 5795 5793 5792 5789 5787 5784 5782 5781 5779 5777 5776 5774 5773 5772 5771 5769 5769 5768 5767 5765 5764 5762 5761 5760 5760 5760 5759 5759 5759 5759 5757 5757 5756 5756 5755 5754 5753 5752 5751 5750
5801 5799 5797 5794 5793 5791 5788 5784 5781 5780 5779 5778 5777 5775 5774 5773 5771 5770 5769 5768 5767 5766 5764 5763 5761 5759 5758 5758 5755 5754 5756 5757 5757 5756 5755 5754 5753 5752 5751 5751 5750 5749 5748
5801 5799 5798 5796 5794 5792 5790 5787 5784 5782 5780 5778 5777 5775 5774 5772 5771 5770 5769 5767 5766 5765 5763 5762 5760 5757 5755 5755 5751 5748 5745 5748 5752 5754 5752 5751 5750 5749 5749 5749 5748 5747 5746
5802 5801 5800 5797 5795 5793 5791 5787 5784 5781 5779 5776 5775 5774 5774 5772 5771 5770 5768 5767 5765 5764 5762 5760 5759 5756 5753 5752 5751 5747 5741 5738 5742 5747 5748 5747 5747 5746 5746 5746 5745 5744 5743
5806 5805 5802 5799 5796 5794 5791 5786 5782 5779 5776 5775 5774 5773 5773 5772 5771 5769 5768 5767 5765 5763 5761 5760 5758 5755 5752 5749 5748 5747 5745 5742 5737 5737 5741 5743 5743 5743 5743 5743 5742 5741 5740
5809 5807 5804 5800 5797 5795 5792 5789 5784 5781 5779 5777 5776 5773 5772 5770 5769 5768 5767 5766 5764 5763 5761 5759 5757 5755 5752 5749 5746 5744 5742 5740 5738 5734 5732 5735 5737 5739 5740 5739 5739 5738 5737
5811 5808 5805 5801 5798 5797 5794 5790 5786 5782 5779 5776 5774 5771 5769 5768 5767 5766 5765 5764 5763 5762 5760 5758 5756 5753 5750 5748 5746 5744 5740 5737 5735 5732 5729 5730 5730 5734 5736 5736 5735 5734 5733